Location: Azul
(36.7830°S, 59.8500°W)
Time: 02:55:18
(UTC-03:00)

ISS - Pass Details

Date: 20 October 2017
Orbit: 400 x 408 km, 51.6° (Epoch: 24 October)

Event Time Altitude Azimuth Distance (km) Brightness Sun altitude
Rises 05:18:18 0° 227° (SW) 2,358 -0.2 -10.4°
Reaches altitude 10° 05:20:25 10° 224° (SW) 1,489 -1.2 -10.0°
Maximum altitude 05:23:44 65° 141° (SE) 456 -3.3 -9.3°
Drops below altitude 10° 05:27:01 10° 58° (ENE) 1,468 -0.4 -8.7°
Sets 05:29:06 0° 54° (NE) 2,321 0.5 -8.3°
